Nasa Shuttle, FL

4:23 PM EDT on April 28, 2017 (GMT -0400)
Nasa Shuttle

Weather History for KTTS - December, 2012

Change the Weather History Date:

Thursday, December 6, 2012

  Actual Average Record
Temperature  
Mean Temperature 70 °F -  
Max Temperature 78 °F 72 °F 84 °F (2016)
Min Temperature 61 °F 54 °F 39 °F (2010)
Cooling Degree Days 4    
Growing Degree Days 20 (Base 50)    
Moisture  
Dew Point 63 °F    
Average Humidity 82    
Maximum Humidity 99    
Minimum Humidity 61    
Precipitation  
Precipitation 0.01 in - - ()
Sea Level Pressure  
Sea Level Pressure 30.02 in    
Wind  
Wind Speed 5 mph (ENE)    
Max Wind Speed 9 mph    
Max Gust Speed -    
Visibility 10 miles    
Events      
Averages and records for this station are not official NWS values.
T = Trace of Precipitation, MM = Missing Value Source: NWS Daily Summary

Daily Weather History Graph

Daily Weather History Graph

Search for Another Location

Airport or City:

Trip Planner

Search our weather history database for the weather conditions in past years. The results will help you decide how hot, cold, wet, or windy it might be!

Date:

Astronomy

Dec. 06, 2012 Rise Set
Actual Time 7:02 AM EST 5:25 PM EST
Civil Twilight 6:36 AM EST 5:51 PM EST
Nautical Twilight 6:07 AM EST 6:21 PM EST
Astronomical Twilight 5:38 AM EST 6:49 PM EST
Moon No Moon Rise 12:21 PM EST (12/6)
Length of Visible Light 11h 15m
Length of Day
10h 23m
Waning Gibbous, 49% of the Moon is Illuminated
Dec 6
Waning Gibbous
Dec 13
New
Dec 20
First Quarter
Dec 28
Full
Jan 4
Last Quarter

Hourly Weather History & Observations

Time (EST) Temp. Dew Point Humidity Pressure Visibility Wind Dir Wind Speed Gust Speed Precip Events Conditions
12:55 AM 65.5 °F 62.8 °F 91% 30.06 in 10.0 mi NNE 3.5 mph - N/A   Overcast
1:55 AM 65.5 °F 63.1 °F 92% 30.05 in 10.0 mi NNW 3.5 mph - N/A   Overcast
2:55 AM 65.1 °F 62.8 °F 92% 30.03 in 10.0 mi North 3.5 mph - N/A   Scattered Clouds
3:55 AM 63.9 °F 62.2 °F 94% 30.02 in 10.0 mi NW 4.6 mph - N/A   Mostly Cloudy
4:06 AM 64.4 °F 62.6 °F 94% 30.03 in 10.0 mi NNW 3.5 mph - N/A   Light Drizzle
4:38 AM 66.2 °F 64.4 °F 94% 30.02 in 10.0 mi SSE 3.5 mph - N/A   Overcast
4:55 AM 66.4 °F 64.2 °F 93% 30.02 in 10.0 mi SSE 5.8 mph - 0.01 in   Mostly Cloudy
5:55 AM 66.2 °F 62.1 °F 86% 30.02 in 10.0 mi Calm Calm - N/A   Overcast
6:55 AM 66.6 °F 62.1 °F 85% 30.03 in 10.0 mi East 4.6 mph - N/A   Overcast
7:55 AM 67.3 °F 63.7 °F 88% 30.04 in 10.0 mi Calm Calm - N/A   Overcast
8:55 AM 71.4 °F 65.8 °F 82% 30.05 in 10.0 mi NE 5.8 mph - N/A   Overcast
9:55 AM 76.6 °F 63.9 °F 65% 30.06 in 10.0 mi East 9.2 mph - N/A   Clear
10:55 AM 77.7 °F 64.8 °F 64% 30.05 in 10.0 mi ESE 8.1 mph - N/A   Mostly Cloudy
11:16 AM 78.8 °F 64.4 °F 61% 30.04 in 10.0 mi ESE 9.2 mph - N/A   Mostly Cloudy
11:38 AM 77.0 °F 62.6 °F 61% 30.04 in 10.0 mi East 8.1 mph - N/A   Overcast
11:39 AM 77.0 °F 62.6 °F 61% 30.04 in 10.0 mi East 9.2 mph - N/A   Overcast
11:41 AM 77.0 °F 62.6 °F 61% 30.04 in 10.0 mi East 6.9 mph - N/A   Overcast
11:55 AM 76.6 °F 62.6 °F 62% 30.03 in 10.0 mi East 9.2 mph - N/A   Overcast
12:55 PM 76.6 °F 64.4 °F 66% 30.00 in 10.0 mi NE 8.1 mph - N/A   Overcast
1:55 PM 77.4 °F 65.7 °F 67% 29.97 in 10.0 mi East 6.9 mph - N/A   Scattered Clouds
2:55 PM 77.0 °F 64.4 °F 65% 29.97 in 10.0 mi East 8.1 mph - N/A   Clear
3:55 PM 75.0 °F 64.9 °F 71% 29.97 in 10.0 mi NNE 8.1 mph - N/A   Clear
4:55 PM 70.7 °F 65.3 °F 83% 29.98 in 10.0 mi East 8.1 mph - N/A   Clear
5:55 PM 67.6 °F 64.4 °F 89% 29.98 in 10.0 mi Calm Calm - N/A   Partly Cloudy
6:55 PM 66.0 °F 63.7 °F 92% 29.98 in 10.0 mi NE 3.5 mph - N/A   Partly Cloudy
7:55 PM 64.4 °F 63.1 °F 96% 29.99 in 10.0 mi Calm Calm - N/A   Clear
8:55 PM 63.3 °F 62.4 °F 97% 29.99 in 10.0 mi WNW 3.5 mph - N/A   Clear
9:55 PM 62.8 °F 62.2 °F 98% 29.99 in 10.0 mi Calm Calm - N/A   Clear
10:55 PM 61.9 °F 61.5 °F 99% 29.99 in 10.0 mi Calm Calm - N/A   Mostly Cloudy
11:55 PM 62.6 °F 62.4 °F 99% 29.98 in 10.0 mi North 3.5 mph - N/A   Scattered Clouds